Location: Cabobito
(9.9667°N, 67.8000°W)
Time: 21:20:23
(UTC+00:00)

Cosmos 2154 Rocket - Pass Details

Date: 18 April 2024
Orbit: 965 x 997 km, 82.9° (Epoch: 25 May)

Event Time Altitude Azimuth Distance (km) Brightness Sun altitude
Rises 23:09:05 0° 354° (N) 3,642 7.3 -7.4°
Reaches altitude 10° 23:11:34 10° 353° (N) 2,696 6.6 -8.0°
Maximum altitude 23:17:44 79° 267° (W) 986 4.2 -9.5°
Drops below altitude 10° 23:23:56 10° 181° (S) 2,711 6.2 -11.0°
Sets 23:26:27 0° 180° (S) 3,662 6.9 -11.6°
